Goldsboro, NC

2:02 AM EDT on June 19, 2018 (GMT -0400)
Seymour Johnson Air Force Base

Weather History for KGSB - January, 2012

Change the Weather History Date:

Sunday, January 1, 2012

  Actual Average Record
Temperature  
Mean Temperature 51 °F -  
Max Temperature 68 °F 53 °F 68 °F (2000)
Min Temperature 34 °F 34 °F 17 °F (2018)
Degree Days  
Heating Degree Days 14    
Growing Degree Days 1 (Base 50)    
Moisture  
Dew Point 41 °F    
Average Humidity 67    
Maximum Humidity 99    
Minimum Humidity 28    
Precipitation  
Precipitation 0.00 in - - ()
Sea Level Pressure  
Sea Level Pressure 30.03 in    
Wind  
Wind Speed 5 mph (SW)    
Max Wind Speed 16 mph    
Max Gust Speed 23 mph    
Visibility 10 miles    
Events      
Averages and records for this station are not official NWS values.
T = Trace of Precipitation, MM = Missing Value Source: NWS Daily Summary

Daily Weather History Graph

Daily Weather History Graph

Search for Another Location

Airport or City:

Astronomy

Jan. 01, 2012 Rise Set
Actual Time 7:20 AM EST 5:09 PM EST
Civil Twilight 6:52 AM EST 5:38 PM EST
Nautical Twilight 6:20 AM EST 6:09 PM EST
Astronomical Twilight 5:49 AM EST 6:40 PM EST
Moon 11:50 AM EST (1/1) 12:22 AM EST (1/1)
Length of Visible Light 10h 45m
Length of Day
9h 49m
First Quarter, 54% of the Moon is Illuminated
Jan 1
First Quarter
Jan 9
Full
Jan 16
Last Quarter
Jan 23
New
Jan 30
First Quarter

Hourly Weather History & Observations

Time (EST) Temp. Windchill Dew Point Humidity Pressure Visibility Wind Dir Wind Speed Gust Speed Precip Events Conditions
12:55 AM 40.5 °F - 37.9 °F 91% 30.15 in 10.0 mi Calm Calm - N/A   Clear
1:55 AM 39.0 °F - 37.9 °F 96% 30.16 in 10.0 mi Calm Calm - N/A   Clear
2:55 AM 38.8 °F - 38.1 °F 97% 30.15 in 10.0 mi Calm Calm - N/A   Clear
3:55 AM 37.6 °F - 37.4 °F 99% 30.15 in 10.0 mi Calm Calm - N/A   Clear
4:55 AM 35.2 °F 32.4 °F 35.1 °F 99% 30.15 in 10.0 mi ENE 3.5 mph - N/A   Clear
5:55 AM 34.9 °F 30.8 °F 34.7 °F 99% 30.16 in 10.0 mi West 4.6 mph - N/A   Clear
6:55 AM 34.7 °F - 34.5 °F 99% 30.17 in 10.0 mi Calm Calm - N/A   Clear
7:55 AM 36.1 °F - 36.0 °F 99% 30.18 in 10.0 mi Calm Calm - N/A   Clear
8:55 AM 43.5 °F - 41.9 °F 94% 30.17 in 10.0 mi Calm Calm - N/A   Clear
9:55 AM 54.5 °F - 39.6 °F 57% 30.17 in 10.0 mi South 4.6 mph - N/A   Clear
10:55 AM 61.3 °F - 37.0 °F 40% 30.13 in 10.0 mi South 5.8 mph - N/A   Clear
11:55 AM 64.9 °F - 36.7 °F 35% 30.07 in 10.0 mi SSW 13.8 mph - N/A   Clear
12:55 PM 67.1 °F - 35.2 °F 31% 30.02 in 10.0 mi SSW 15.0 mph 23.0 mph N/A   Clear
1:55 PM 68.0 °F - 33.8 °F 28% 29.99 in 10.0 mi SSW 16.1 mph - N/A   Clear
2:55 PM 67.8 °F - 34.0 °F 29% 29.95 in 10.0 mi SSW 12.7 mph - N/A   Clear
3:55 PM 66.9 °F - 34.9 °F 31% 29.94 in 10.0 mi SSW 10.4 mph 20.7 mph N/A   Clear
4:55 PM 65.8 °F - 38.5 °F 37% 29.92 in 10.0 mi South 10.4 mph - N/A   Clear
5:55 PM 63.3 °F - 40.3 °F 43% 29.92 in 10.0 mi SSW 9.2 mph 18.4 mph N/A   Clear
6:55 PM 61.7 °F - 43.7 °F 52% 29.92 in 10.0 mi SSW 10.4 mph - N/A   Scattered Clouds
7:55 PM 60.8 °F - 46.9 °F 60% 29.92 in 10.0 mi SSW 11.5 mph - N/A   Partly Cloudy
8:55 PM 60.8 °F - 49.3 °F 66% 29.89 in 10.0 mi SSW 11.5 mph - N/A   Clear
9:55 PM 61.7 °F - 51.8 °F 70% 29.89 in 10.0 mi SW 13.8 mph - N/A   Clear
10:47 PM 60.8 °F - 51.8 °F 72% 29.91 in 10.0 mi West 13.8 mph 19.6 mph N/A   Mostly Cloudy
10:55 PM 60.4 °F - 51.8 °F 73% 29.91 in 10.0 mi West 10.4 mph 19.6 mph N/A   Mostly Cloudy
10:56 PM 60.8 °F - 51.8 °F 72% 29.91 in 10.0 mi West 10.4 mph 19.6 mph N/A   Mostly Cloudy
11:15 PM 60.8 °F - 51.8 °F 72% 29.91 in 10.0 mi West 6.9 mph - N/A   Overcast
11:55 PM 59.5 °F - 49.6 °F 70% 29.91 in 10.0 mi WNW 6.9 mph - N/A   Mostly Cloudy